Waarnemingen

Advertentie
Mijn weer
Landivisiau, Frankrijk (7106): temperatuur & dauwpunt: 18.01.2018 04:00:00 - 24.01.2018 04:00:00 (CET)Landivisiau, Frankrijk (7106): windsnelheid & windstoten: 18.01.2018 04:00:00 - 24.01.2018 04:00:00 (CET)Landivisiau, Frankrijk (7106): windrichting: 18.01.2018 04:00:00 - 24.01.2018 04:00:00 (CET)Landivisiau, Frankrijk (7106): luchtdruk: 18.01.2018 04:00:00 - 24.01.2018 04:00:00 (CET)Landivisiau, Frankrijk (7106): zicht: 18.01.2018 04:00:00 - 24.01.2018 04:00:00 (CET)Landivisiau, Frankrijk (7106): neerslag: 18.01.2018 04:00:00 - 24.01.2018 04:00:00 (CET)
Datum & Tijd tt [°C] td [°C] ff [km/u] ff [kn] fx [km/u] fx [kn] dd ppp [hPa] vv [km] rr [mm]
24.01.2018 04:00:00 12,4 12,1 44 24 65 35 ZZW 1016,0 11 -
24.01.2018 03:00:00 12,3 12,1 37 20 61 33 ZZW 1016,6 11 0,0
24.01.2018 02:00:00 12,2 12,0 39 21 61 33 ZZW 1017,4 10 0,0
24.01.2018 01:00:00 12,1 11,8 37 20 57 31 ZZW 1018,5 4,4 -
24.01.2018 00:00:00 12,0 11,7 35 19 52 28 ZW 1019,1 4,0 0,2
23.01.2018 23:00:00 12,0 11,5 37 20 59 32 ZW 1019,6 5 0,0
23.01.2018 22:00:00 12,3 11,8 29 16 48 26 ZW 1019,5 4,0 -
23.01.2018 21:00:00 12,1 11,5 29 16 50 27 WZW 1020,1 10 0,0
23.01.2018 20:00:00 12,1 11,9 35 19 48 26 ZW 1020,3 10 0,2
23.01.2018 19:00:00 12,2 11,9 28 15 54 29 ZW 1020,5 5 -
23.01.2018 18:00:00 12,2 11,9 34 18 55 30 ZW 1020,3 7 0,0
23.01.2018 17:00:00 12,3 12,1 34 18 54 29 ZW 1019,9 5 0,2
23.01.2018 16:00:00 12,4 12,2 31 17 54 29 ZW 1019,4 3,2 -
23.01.2018 15:00:00 12,4 12,2 35 19 59 32 ZW 1019,7 2,8 0,0
23.01.2018 14:00:00 12,4 12,2 35 19 55 30 ZW 1019,8 2,4 0,4
23.01.2018 13:00:00 12,2 12,0 34 18 52 28 ZW 1020,5 2,6 -
23.01.2018 12:00:00 12,0 11,8 35 19 57 31 ZW 1020,9 2,3 0,0
23.01.2018 11:00:00 12,0 11,7 35 19 55 30 ZW 1020,5 3,4 0,6
23.01.2018 10:00:00 11,9 11,4 34 18 50 27 ZW 1020,4 2,8 -
23.01.2018 09:00:00 11,8 11,3 29 16 48 26 ZW 1020,1 7 0,2
23.01.2018 08:00:00 11,9 11,6 29 16 50 27 ZW 1020,3 6 0,2
23.01.2018 07:00:00 11,8 11,8 31 17 46 25 ZW 1020,4 6 -
23.01.2018 06:00:00 11,6 11,4 24 13 39 21 ZW 1020,8 0,4 0,0
23.01.2018 05:00:00 11,1 10,9 16 9 35 19 ZZW 1020,8 7 0,2
23.01.2018 04:00:00 10,4 10,1 18 10 31 17 ZZW 1021,2 4,4 -
23.01.2018 03:00:00 9,9 9,4 21 11 34 18 Z 1021,5 5 0,2
23.01.2018 02:00:00 9,5 8,7 18 10 31 17 ZZW 1021,9 15 0,0
23.01.2018 01:00:00 8,9 8,4 21 11 29 16 Z 1022,7 11 -
23.01.2018 00:00:00 9,2 8,9 21 11 34 18 ZZW 1022,7 8 0,0
22.01.2018 23:00:00 8,9 8,6 16 9 22 12 ZZW 1023,1 6 0,0
22.01.2018 22:00:00 9,1 8,8 15 8 26 14 ZW 1023,3 7 -
22.01.2018 21:00:00 8,4 7,6 13 7 21 11 ZZW 1023,5 4,7 0,0
22.01.2018 20:00:00 8,9 8,0 15 8 21 11 WZW 1023,6 12 0,0
22.01.2018 19:00:00 9,2 7,6 13 7 18 10 WZW 1023,3 15 -
22.01.2018 18:00:00 9,9 7,7 13 7 24 13 W 1022,9 10 0,0
22.01.2018 17:00:00 10,5 7,2 16 9 31 17 W 1022,6 22 0,0
22.01.2018 16:00:00 10,6 6,9 18 10 39 21 W 1022,0 22 -
22.01.2018 15:00:00 10,7 6,8 21 11 37 20 WNW 1021,1 30 0,0
22.01.2018 14:00:00 10,8 7,5 21 11 42 23 NW 1020,6 10 0,0
22.01.2018 13:00:00 10,7 8,8 22 12 50 27 WNW 1020,4 14 -
22.01.2018 12:00:00 10,8 8,7 28 15 42 23 NW 1019,8 14 0,0
22.01.2018 11:00:00 10,4 8,2 29 16 55 30 NW 1018,5 10 0,0
22.01.2018 10:00:00 10,0 8,3 34 18 61 33 NW 1016,8 17 -
22.01.2018 09:00:00 10,2 8,6 44 24 89 48 NW 1013,9 10 0,0
22.01.2018 08:00:00 12,2 10,6 52 28 87 47 W 1010,7 11 0,2
22.01.2018 07:00:00 12,5 11,7 57 31 91 49 WZW 1011,1 11 -
22.01.2018 06:00:00 12,3 11,8 46 25 74 40 WZW 1012,1 4,4 0,4
22.01.2018 05:00:00 12,1 11,6 41 22 68 37 WZW 1013,1 4,8 0,4
22.01.2018 04:00:00 12,4 11,9 42 23 68 37 WZW 1013,7 7 -
22.01.2018 03:00:00 12,4 12,1 41 22 59 32 WZW 1013,9 5 0,8
22.01.2018 02:00:00 12,3 12,0 37 20 55 30 WZW 1014,8 6 0,4
22.01.2018 01:00:00 12,2 11,9 35 19 57 31 WZW 1015,6 2,9 -
22.01.2018 00:00:00 12,2 11,9 34 18 55 30 W 1015,7 6 0,0
21.01.2018 23:00:00 12,3 12,0 39 21 57 31 W 1016,2 10 0,2
21.01.2018 22:00:00 12,2 11,9 35 19 55 30 W 1016,4 2,0 -
21.01.2018 21:00:00 12,2 11,9 39 21 57 31 W 1016,2 4,6 0,2
21.01.2018 20:00:00 12,0 11,7 37 20 61 33 W 1016,5 4,5 0,0
21.01.2018 19:00:00 11,9 11,6 35 19 55 30 W 1016,6 8 -
21.01.2018 18:00:00 11,7 11,4 37 20 54 29 W 1016,5 2,3 0,0
21.01.2018 17:00:00 11,5 10,9 35 19 59 32 W 1016,7 2,6 0,0
21.01.2018 16:00:00 11,6 10,8 35 19 57 31 W 1017,0 10 -
21.01.2018 15:00:00 11,8 10,9 34 18 61 33 W 1017,2 9 0,0
21.01.2018 14:00:00 11,7 11,1 35 19 63 34 W 1017,5 11 0,0
21.01.2018 13:00:00 11,8 11,5 35 19 55 30 W 1017,9 10 -
21.01.2018 12:00:00 11,6 11,3 34 18 52 28 W 1018,4 2,3 0,2
21.01.2018 11:00:00 11,4 11,2 35 19 55 30 W 1018,1 3,4 0,0
21.01.2018 10:00:00 11,2 11,0 31 17 44 24 W 1018,1 1,8 -
21.01.2018 09:00:00 11,0 10,8 31 17 50 27 W 1017,8 4,4 0,2
21.01.2018 08:00:00 11,1 10,9 26 14 48 26 W 1017,5 5 0,0
21.01.2018 07:00:00 11,2 11,0 31 17 50 27 WNW 1017,2 1,5 -
21.01.2018 06:00:00 11,3 11,1 31 17 48 26 W 1016,8 2,1 0,4
21.01.2018 05:00:00 11,4 11,4 29 16 55 30 W 1016,4 4,0 0,2
21.01.2018 04:00:00 11,4 11,4 28 15 42 23 W 1016,2 1,3 -
21.01.2018 03:00:00 11,2 11,2 15 8 26 14 WNW 1016,0 5 0,6
21.01.2018 02:00:00 10,4 10,4 9 5 28 15 WNW 1016,1 1,8 0,4
21.01.2018 01:00:00 10,5 10,3 16 9 29 16 WNW 1015,6 1,7 -
21.01.2018 00:00:00 10,5 10,3 18 10 35 19 NW 1015,3 3,8 0,2
20.01.2018 23:00:00 10,6 10,4 18 10 46 25 NW 1014,5 1,3 1,0
20.01.2018 22:00:00 11,0 10,7 31 17 57 31 WNW 1013,6 5 -
20.01.2018 21:00:00 10,7 9,9 35 19 67 36 WNW 1012,6 8 0,6
20.01.2018 20:00:00 11,3 10,7 39 21 72 39 WNW 1011,8 10 0,2
20.01.2018 19:00:00 11,4 10,9 39 21 65 35 WNW 1011,0 10 -
20.01.2018 18:00:00 11,4 10,8 34 18 70 38 WNW 1010,1 10 0,0
20.01.2018 17:00:00 11,5 11,0 39 21 67 36 WNW 1009,1 3,6 0,0
20.01.2018 16:00:00 11,8 11,3 42 23 74 40 WNW 1007,9 17 -
20.01.2018 15:00:00 11,8 11,5 44 24 76 41 W 1007,3 2,7 0,2
20.01.2018 14:00:00 11,9 11,6 41 22 74 40 W 1007,2 3,0 0,2
20.01.2018 13:00:00 11,9 11,4 39 21 65 35 W 1007,3 3,0 -
20.01.2018 12:00:00 11,8 11,3 42 23 70 38 WNW 1007,3 3,5 0,2
20.01.2018 11:00:00 11,8 11,2 44 24 81 44 WNW 1006,4 6 0,2
20.01.2018 10:00:00 11,8 11,3 44 24 78 42 WNW 1005,4 3,4 -
20.01.2018 09:00:00 11,9 11,4 48 26 83 45 W 1004,5 4,9 0,6
20.01.2018 08:00:00 11,9 11,4 52 28 83 45 W 1003,7 10 0,8
20.01.2018 07:00:00 11,8 11,3 46 25 81 44 W 1003,7 2,1 -
20.01.2018 06:00:00 11,8 11,3 44 24 78 42 W 1004,0 4,9 2,0
20.01.2018 05:00:00 11,4 11,1 50 27 78 42 W 1004,4 5 5,0
20.01.2018 04:00:00 8,9 8,6 34 18 57 31 ZZW 1006,3 3,2 -
20.01.2018 03:00:00 7,6 7,0 22 12 35 19 ZZW 1009,2 6 3,0
20.01.2018 02:00:00 7,9 7,3 31 17 44 24 WZW 1012,5 6 3,0
20.01.2018 01:00:00 7,3 6,6 16 9 26 14 ZW 1014,3 10 -
20.01.2018 00:00:00 7,5 6,4 15 8 29 16 ZW 1015,7 10 0,2
19.01.2018 23:00:00 7,8 6,4 21 11 31 17 WZW 1016,1 10 0,0
19.01.2018 22:00:00 7,2 5,8 13 7 24 13 W 1016,7 12 -
19.01.2018 21:00:00 5,6 4,4 16 9 22 12 ZW 1017,1 10 0,2
19.01.2018 20:00:00 6,0 4,3 16 9 50 27 WZW 1017,4 10 1,0
19.01.2018 19:00:00 5,4 4,0 15 8 18 10 WZW 1017,5 17 -
19.01.2018 18:00:00 5,6 3,8 15 8 24 13 WZW 1017,6 10 0,0
19.01.2018 17:00:00 5,7 3,7 15 8 54 29 W 1017,6 10 0,8
19.01.2018 16:00:00 8,1 2,7 31 17 46 25 W 1017,1 19 -
19.01.2018 15:00:00 7,8 3,5 22 12 44 24 WNW 1016,9 10 0,0
19.01.2018 14:00:00 8,6 3,0 26 14 41 22 WNW 1017,0 40 0,0
19.01.2018 13:00:00 8,6 2,6 26 14 42 23 W 1016,8 19 -
19.01.2018 12:00:00 8,0 4,0 18 10 29 16 W 1017,3 10 0,0
19.01.2018 11:00:00 5,6 3,6 13 7 37 20 WNW 1017,0 10 0,4
19.01.2018 10:00:00 5,9 2,9 16 9 26 14 WZW 1016,4 10 -
19.01.2018 09:00:00 5,1 2,6 13 7 24 13 W 1016,1 10 0,0
19.01.2018 08:00:00 3,9 3,3 15 8 24 13 ZW 1015,5 10 0,0
19.01.2018 07:00:00 4,3 3,0 13 7 34 18 WZW 1015,4 10 -
19.01.2018 06:00:00 4,7 3,0 16 9 52 28 WZW 1015,2 10 1,0
19.01.2018 05:00:00 5,9 5,0 24 13 37 20 W 1015,3 10 2,0
19.01.2018 04:00:00 5,6 4,4 13 7 31 17 W 1015,2 10 -
19.01.2018 03:00:00 4,8 3,1 15 8 22 12 ZW 1015,1 10 0,0
19.01.2018 02:00:00 4,8 2,7 16 9 18 10 ZW 1015,3 10 0,0
19.01.2018 01:00:00 6,2 2,6 11 6 26 14 W 1015,3 10 -
19.01.2018 00:00:00 5,9 3,2 15 8 35 19 W 1015,2 10 0,0
18.01.2018 23:00:00 5,9 3,7 18 10 57 31 WNW 1015,0 10 0,0
18.01.2018 22:00:00 6,7 3,7 15 8 34 18 W 1014,8 10 -
18.01.2018 21:00:00 6,9 3,7 29 16 48 26 NW 1014,5 10 0,0
18.01.2018 20:00:00 7,6 4,2 26 14 46 25 WNW 1014,0 10 0,0
18.01.2018 19:00:00 7,7 5,3 34 18 55 30 WNW 1013,5 10 -
18.01.2018 18:00:00 8,2 4,8 28 15 44 24 W 1012,8 10 0,0
18.01.2018 17:00:00 9,3 6,4 26 14 59 32 WNW 1012,0 10 0,0
18.01.2018 16:00:00 10,5 6,3 34 18 55 30 WNW 1011,0 10 -
18.01.2018 15:00:00 11,2 6,7 34 18 65 35 W 1011,1 10 0,0
18.01.2018 14:00:00 11,0 7,5 34 18 57 31 W 1010,9 10 0,0
18.01.2018 13:00:00 11,1 8,5 34 18 57 31 WNW 1011,2 10 -
18.01.2018 12:00:00 11,2 9,9 31 17 55 30 W 1011,0 10 0,2
18.01.2018 11:00:00 11,3 10,7 35 19 65 35 W 1010,6 3,5 1,0
18.01.2018 10:00:00 11,5 10,9 37 20 59 32 W 1010,3 7 -
18.01.2018 09:00:00 11,5 10,9 37 20 59 32 W 1009,9 10 0,2
18.01.2018 08:00:00 11,5 10,9 39 21 68 37 W 1009,8 10 0,4
18.01.2018 07:00:00 11,4 10,9 42 23 65 35 W 1009,5 5 -
18.01.2018 06:00:00 11,2 10,6 50 27 70 38 W 1009,9 6 0,4
18.01.2018 05:00:00 10,9 10,1 46 25 78 42 W 1010,1 5 0,4
18.01.2018 04:00:00 10,7 9,9 50 27 80 43 WZW 1010,5 6 -

tt = temperatuur
td = dauwpunt
ff = windsnelheid
fx = windstoten
dd = windrichting
ppp = luchtdruk
vv = zicht
rr = neerslag

Weerstations in de omgeving